When you browse on this site, cookies collect data to enhance your experience and personalize the content and advertising you see.
Visit our Privacy Policy to learn more. By continuing to use the site, you agree to this use of cookies and data.
  • In Schweiz
  • Länderverzeichnis
  • Für 7 Tage
  • Wassertemperatur
  • Satellitenkarten
  • Wetterkarte
  • Widgets
  • user-avatar
    Anmelden

    Stündliche Wetter Landau in der Pfalz

    Heute, 23 Juli, Dienstag

    Zeit Temperatur Niederschläge Wind Luftdruck Luftfeuchtigkeit
    00:00 +22°C° 0 mm 1 m/S 752 mmHg 58%
    01:00 +22°C° 0 mm 1 m/S 752 mmHg 59%
    02:00 +22°C° 0 mm 1 m/S 752 mmHg 60%
    03:00 +22°C° 0 mm 1 m/S 751 mmHg 62%
    04:00 +21°C° 0 mm 1 m/S 751 mmHg 63%
    05:00 +22°C° 0 mm 1 m/S 751 mmHg 63%
    06:00 +23°C° 0 mm 2 m/S 751 mmHg 62%
    07:00 +24°C° 0 mm 2 m/S 751 mmHg 62%
    08:00 +26°C° 0 mm 2 m/S 751 mmHg 56%
    09:00 +28°C° 0 mm 2 m/S 751 mmHg 51%
    10:00 +30°C° 0 mm 3 m/S 751 mmHg 45%
    11:00 +31°C° 0 mm 3 m/S 751 mmHg 42%
    12:00 +33°C° 0 mm 3 m/S 750 mmHg 38%
    13:00 +34°C° 0 mm 3 m/S 750 mmHg 35%
    14:00 +35°C° 0 mm 3 m/S 750 mmHg 35%
    15:00 +35°C° 0 mm 3 m/S 750 mmHg 34%
    16:00 +35°C° 0 mm 3 m/S 749 mmHg 33%
    17:00 +34°C° 0 mm 3 m/S 749 mmHg 40%
    18:00 +32°C° 0 mm 2 m/S 749 mmHg 47%
    19:00 +30°C° 0 mm 2 m/S 748 mmHg 53%
    20:00 +29°C° 0 mm 2 m/S 748 mmHg 57%
    21:00 +27°C° 0 mm 2 m/S 749 mmHg 62%
    22:00 +26°C° 0 mm 2 m/S 749 mmHg 66%
    23:00 +25°C° 0 mm 2 m/S 749 mmHg 69%

    Morgen, 24 Juli, Mittwoch

    Zeit Temperatur Niederschläge Wind Luftdruck Luftfeuchtigkeit
    00:00 +24°C° 0 mm 2 m/S 748 mmHg 71%
    01:00 +24°C° 0 mm 1 m/S 748 mmHg 74%
    02:00 +23°C° 0 mm 1 m/S 748 mmHg 76%
    03:00 +23°C° 0 mm 1 m/S 748 mmHg 78%
    04:00 +22°C° 0 mm 1 m/S 747 mmHg 80%
    05:00 +23°C° 0 mm 1 m/S 748 mmHg 77%
    06:00 +24°C° 0 mm 1 m/S 748 mmHg 75%
    07:00 +25°C° 0 mm 1 m/S 748 mmHg 72%
    08:00 +27°C° 0 mm 1 m/S 748 mmHg 65%
    09:00 +29°C° 0 mm 1 m/S 748 mmHg 58%
    10:00 +31°C° 0 mm 1 m/S 748 mmHg 51%
    11:00 +33°C° 0 mm 1 m/S 747 mmHg 46%
    12:00 +34°C° 0 mm 1 m/S 747 mmHg 42%
    13:00 +36°C° 0 mm 1 m/S 747 mmHg 38%
    14:00 +36°C° 0 mm 1 m/S 747 mmHg 37%
    15:00 +36°C° 0 mm 1 m/S 747 mmHg 35%
    16:00 +37°C° 0 mm 1 m/S 746 mmHg 34%
    17:00 +35°C° 0 mm 1 m/S 746 mmHg 40%
    18:00 +34°C° 0 mm 1 m/S 746 mmHg 46%
    19:00 +33°C° 0 mm 1 m/S 746 mmHg 51%
    20:00 +31°C° 0 mm 1 m/S 747 mmHg 55%
    21:00 +29°C° 0 mm 1 m/S 747 mmHg 59%
    22:00 +27°C° 0 mm 1 m/S 747 mmHg 63%
    23:00 +27°C° 0 mm 1 m/S 747 mmHg 66%

    übermorgen, 25 Juli, Donnerstag

    Zeit Temperatur Niederschläge Wind Luftdruck Luftfeuchtigkeit
    00:00 +26°C° 0 mm 1 m/S 747 mmHg 68%
    01:00 +26°C° 0 mm 1 m/S 747 mmHg 71%
    02:00 +25°C° 0 mm 1 m/S 747 mmHg 73%
    03:00 +25°C° 0 mm 1 m/S 747 mmHg 76%
    04:00 +24°C° 0 mm 1 m/S 747 mmHg 78%
    05:00 +25°C° 0 mm 1 m/S 747 mmHg 76%
    06:00 +26°C° 0 mm 1 m/S 747 mmHg 74%
    07:00 +27°C° 0 mm 1 m/S 747 mmHg 72%
    08:00 +29°C° 0 mm 1 m/S 748 mmHg 64%
    09:00 +31°C° 0 mm 2 m/S 748 mmHg 57%
    10:00 +34°C° 0 mm 2 m/S 748 mmHg 50%
    11:00 +35°C° 0 mm 2 m/S 747 mmHg 44%
    12:00 +36°C° 0 mm 3 m/S 747 mmHg 39%
    13:00 +38°C° 0 mm 3 m/S 747 mmHg 33%
    14:00 +38°C° 0 mm 3 m/S 746 mmHg 32%
    15:00 +38°C° 0 mm 4 m/S 746 mmHg 32%
    16:00 +38°C° 0 mm 4 m/S 746 mmHg 31%
    17:00 +37°C° 0 mm 4 m/S 746 mmHg 37%
    18:00 +35°C° 0 mm 3 m/S 746 mmHg 43%
    19:00 +33°C° 0 mm 3 m/S 745 mmHg 49%
    20:00 +31°C° 0 mm 2 m/S 746 mmHg 53%
    21:00 +29°C° 0 mm 2 m/S 746 mmHg 57%
    22:00 +28°C° 0 mm 1 m/S 746 mmHg 61%
    23:00 +27°C° 0 mm 1 m/S 746 mmHg 62%

    26 Juli, Freitag

    Zeit Temperatur Niederschläge Wind Luftdruck Luftfeuchtigkeit
    00:00 +26°C° 0 mm 1 m/S 746 mmHg 64%
    01:00 +26°C° 0 mm 1 m/S 745 mmHg 66%
    02:00 +25°C° 0 mm 1 m/S 745 mmHg 68%
    03:00 +25°C° 0 mm 1 m/S 745 mmHg 69%
    04:00 +24°C° 0 mm 2 m/S 745 mmHg 71%
    05:00 +25°C° 0 mm 2 m/S 745 mmHg 70%
    06:00 +26°C° 0 mm 2 m/S 744 mmHg 68%
    07:00 +26°C° 0 mm 2 m/S 744 mmHg 67%
    08:00 +28°C° 0 mm 2 m/S 744 mmHg 60%
    09:00 +30°C° 0 mm 3 m/S 744 mmHg 53%
    10:00 +33°C° 0 mm 3 m/S 744 mmHg 47%
    11:00 +34°C° 0 mm 3 m/S 744 mmHg 42%
    12:00 +36°C° 0 mm 3 m/S 744 mmHg 37%
    13:00 +37°C° 0 mm 4 m/S 743 mmHg 33%
    14:00 +37°C° 0 mm 4 m/S 743 mmHg 33%
    15:00 +37°C° 0 mm 4 m/S 742 mmHg 33%
    16:00 +37°C° 0 mm 3 m/S 742 mmHg 33%
    17:00 +35°C° 0 mm 3 m/S 742 mmHg 38%
    18:00 +34°C° 0 mm 3 m/S 741 mmHg 43%
    19:00 +33°C° 0 mm 3 m/S 741 mmHg 47%
    20:00 +30°C° 0 mm 2 m/S 741 mmHg 49%
    21:00 +28°C° 0 mm 2 m/S 741 mmHg 51%
    22:00 +27°C° 0 mm 2 m/S 740 mmHg 53%
    23:00 +26°C° 0 mm 2 m/S 740 mmHg 56%

    27 Juli, Samstag

    Zeit Temperatur Niederschläge Wind Luftdruck Luftfeuchtigkeit
    00:00 +25°C° 0 mm 2 m/S 740 mmHg 59%
    01:00 +25°C° 0 mm 2 m/S 740 mmHg 62%
    02:00 +24°C° 0 mm 2 m/S 740 mmHg 64%
    03:00 +23°C° 0 mm 1 m/S 740 mmHg 66%
    04:00 +23°C° 0 mm 1 m/S 740 mmHg 69%
    05:00 +23°C° 0 mm 1 m/S 739 mmHg 68%
    06:00 +24°C° 0 mm 2 m/S 739 mmHg 68%
    07:00 +24°C° 0 mm 2 m/S 739 mmHg 67%
    08:00 +26°C° 0 mm 2 m/S 739 mmHg 62%
    09:00 +28°C° 0 mm 2 m/S 740 mmHg 57%
    10:00 +29°C° 0 mm 2 m/S 740 mmHg 53%
    11:00 +31°C° 0 mm 2 m/S 739 mmHg 49%
    12:00 +32°C° 0 mm 2 m/S 739 mmHg 45%
    13:00 +34°C° 0 mm 3 m/S 738 mmHg 41%
    14:00 +33°C° 0 mm 3 m/S 738 mmHg 42%
    15:00 +33°C° 0 mm 3 m/S 738 mmHg 42%
    16:00 +33°C° 0 mm 4 m/S 737 mmHg 43%
    17:00 +32°C° 0.2 mm 4 m/S 737 mmHg 47%
    18:00 +30°C° 0.2 mm 4 m/S 737 mmHg 50%
    19:00 +29°C° 0.2 mm 3 m/S 737 mmHg 54%
    20:00 +27°C° 0.6 mm 3 m/S 737 mmHg 61%
    21:00 +25°C° 0.6 mm 2 m/S 738 mmHg 69%
    22:00 +23°C° 0.6 mm 1 m/S 738 mmHg 77%
    23:00 +22°C° 0.2 mm 1 m/S 738 mmHg 79%

    28 Juli, Sonntag

    Zeit Temperatur Niederschläge Wind Luftdruck Luftfeuchtigkeit
    00:00 +22°C° 0.2 mm 1 m/S 738 mmHg 81%
    01:00 +20°C° 0.2 mm 2 m/S 738 mmHg 83%
    02:00 +20°C° 0.1 mm 2 m/S 738 mmHg 86%
    03:00 +20°C° 0.1 mm 2 m/S 738 mmHg 89%
    04:00 +19°C° 0.1 mm 2 m/S 738 mmHg 91%
    05:00 +20°C° 0.2 mm 1 m/S 739 mmHg 90%
    06:00 +21°C° 0.2 mm 1 m/S 739 mmHg 89%
    07:00 +21°C° 0.2 mm 1 m/S 739 mmHg 88%
    08:00 +22°C° 0 mm 1 m/S 740 mmHg 83%
    09:00 +23°C° 0 mm 1 m/S 740 mmHg 79%
    10:00 +24°C° 0 mm 1 m/S 740 mmHg 74%
    11:00 +25°C° 0.3 mm 2 m/S 741 mmHg 74%
    12:00 +25°C° 0.3 mm 3 m/S 741 mmHg 73%
    13:00 +25°C° 0.3 mm 3 m/S 741 mmHg 72%
    14:00 +25°C° 0.3 mm 3 m/S 741 mmHg 70%
    15:00 +25°C° 0.3 mm 4 m/S 741 mmHg 68%
    16:00 +26°C° 0.3 mm 4 m/S 741 mmHg 66%
    17:00 +25°C° 0.2 mm 4 m/S 742 mmHg 69%
    18:00 +23°C° 0.2 mm 4 m/S 742 mmHg 73%
    19:00 +22°C° 0.2 mm 4 m/S 742 mmHg 76%
    20:00 +21°C° 0 mm 4 m/S 743 mmHg 80%
    21:00 +19°C° 0 mm 3 m/S 743 mmHg 84%
    22:00 +18°C° 0 mm 3 m/S 744 mmHg 88%
    23:00 +18°C° 0 mm 3 m/S 744 mmHg 89%
    Mehr zeigen